Year,Month,Day,Hour,Minute,Value (Times are PST for temperature in C)
2011,07,17,00,00,13.80
2011,07,17,00,01,13.80
2011,07,17,00,02,13.80
2011,07,17,00,03,13.80
2011,07,17,00,04,13.90
2011,07,17,00,05,13.90
2011,07,17,00,06,13.90
2011,07,17,00,07,13.90
2011,07,17,00,08,13.90
2011,07,17,00,09,14.00
2011,07,17,00,10,14.00
2011,07,17,00,11,14.00
2011,07,17,00,12,14.10
2011,07,17,00,13,14.10
2011,07,17,00,14,14.10
2011,07,17,00,15,14.10
2011,07,17,00,16,14.10
2011,07,17,00,17,14.10
2011,07,17,00,18,14.10
2011,07,17,00,19,14.10
2011,07,17,00,20,14.10
2011,07,17,00,21,14.10
2011,07,17,00,22,14.10
2011,07,17,00,23,14.10
2011,07,17,00,24,14.20
2011,07,17,00,25,14.20
2011,07,17,00,26,14.20
2011,07,17,00,27,14.20
2011,07,17,00,28,14.10
2011,07,17,00,29,14.10
2011,07,17,00,30,14.10
2011,07,17,00,31,14.10
2011,07,17,00,32,14.10
2011,07,17,00,33,14.10
2011,07,17,00,34,14.10
2011,07,17,00,35,14.10
2011,07,17,00,36,14.00
2011,07,17,00,37,14.00
2011,07,17,00,38,14.00
2011,07,17,00,39,13.90
2011,07,17,00,40,13.90
2011,07,17,00,41,13.80
2011,07,17,00,42,13.80
2011,07,17,00,43,13.70
2011,07,17,00,44,13.70
2011,07,17,00,45,13.60
2011,07,17,00,46,13.60
2011,07,17,00,47,13.50
2011,07,17,00,48,13.50
2011,07,17,00,49,13.40
2011,07,17,00,50,13.40
2011,07,17,00,51,13.40
2011,07,17,00,52,13.40
2011,07,17,00,53,13.30
2011,07,17,00,54,13.30
2011,07,17,00,55,13.30
2011,07,17,00,56,13.30
2011,07,17,00,57,13.30
2011,07,17,00,58,13.30
2011,07,17,00,59,13.30
2011,07,17,01,00,13.30
2011,07,17,01,01,13.30
2011,07,17,01,02,13.30
2011,07,17,01,03,13.30
2011,07,17,01,04,13.30
2011,07,17,01,05,13.30
2011,07,17,01,06,13.30
2011,07,17,01,07,13.30
2011,07,17,01,08,13.30
2011,07,17,01,09,13.30
2011,07,17,01,10,13.30
2011,07,17,01,11,13.30
2011,07,17,01,12,13.30
2011,07,17,01,13,13.30
2011,07,17,01,14,13.30
2011,07,17,01,15,13.30
2011,07,17,01,16,13.30
2011,07,17,01,17,13.30
2011,07,17,01,18,13.30
2011,07,17,01,19,13.30
2011,07,17,01,20,13.30
2011,07,17,01,21,13.30
2011,07,17,01,22,13.30
2011,07,17,01,23,13.30
2011,07,17,01,24,13.30
2011,07,17,01,25,13.30
2011,07,17,01,26,13.30
2011,07,17,01,27,13.30
2011,07,17,01,28,13.30
2011,07,17,01,29,13.30
2011,07,17,01,30,13.20
2011,07,17,01,31,13.20
2011,07,17,01,32,13.20
2011,07,17,01,33,13.20
2011,07,17,01,34,13.20
2011,07,17,01,35,13.20
2011,07,17,01,36,13.20
2011,07,17,01,37,13.20
2011,07,17,01,38,13.20
2011,07,17,01,39,13.20
2011,07,17,01,40,13.20
2011,07,17,01,41,13.10
2011,07,17,01,42,13.10
2011,07,17,01,43,13.10
2011,07,17,01,44,13.10
2011,07,17,01,45,13.00
2011,07,17,01,46,13.00
2011,07,17,01,47,12.90
2011,07,17,01,48,12.90
2011,07,17,01,49,12.90
2011,07,17,01,50,12.90
2011,07,17,01,51,12.90
2011,07,17,01,52,12.90
2011,07,17,01,53,12.90
2011,07,17,01,54,12.90
2011,07,17,01,55,12.90
2011,07,17,01,56,12.90
2011,07,17,01,57,12.90
2011,07,17,01,58,12.90
2011,07,17,01,59,12.80
2011,07,17,02,00,12.80
2011,07,17,02,01,12.80
2011,07,17,02,02,12.80
2011,07,17,02,03,12.80
2011,07,17,02,04,12.80
2011,07,17,02,05,12.80
2011,07,17,02,06,12.80
2011,07,17,02,07,12.80
2011,07,17,02,08,12.80
2011,07,17,02,09,12.80
2011,07,17,02,10,12.80
2011,07,17,02,11,12.80
2011,07,17,02,12,12.80
2011,07,17,02,13,12.80
2011,07,17,02,14,12.80
2011,07,17,02,15,12.80
2011,07,17,02,16,12.80
2011,07,17,02,17,12.80
2011,07,17,02,18,12.80
2011,07,17,02,19,12.80
2011,07,17,02,20,12.70
2011,07,17,02,21,12.70
2011,07,17,02,22,12.70
2011,07,17,02,23,12.70
2011,07,17,02,24,12.70
2011,07,17,02,25,12.70
2011,07,17,02,26,12.70
2011,07,17,02,27,12.70
2011,07,17,02,28,12.70
2011,07,17,02,29,12.70
2011,07,17,02,30,12.70
2011,07,17,02,31,12.70
2011,07,17,02,32,12.70
2011,07,17,02,33,12.70
2011,07,17,02,34,12.70
2011,07,17,02,35,12.70
2011,07,17,02,36,12.70
2011,07,17,02,37,12.70
2011,07,17,02,38,12.70
2011,07,17,02,39,12.70
2011,07,17,02,40,12.70
2011,07,17,02,41,12.70
2011,07,17,02,42,12.70
2011,07,17,02,43,12.70
2011,07,17,02,44,12.70
2011,07,17,02,45,12.70
2011,07,17,02,46,12.70
2011,07,17,02,47,12.70
2011,07,17,02,48,12.80
2011,07,17,02,49,12.80
2011,07,17,02,50,12.80
2011,07,17,02,51,12.80
2011,07,17,02,52,12.80
2011,07,17,02,53,12.80
2011,07,17,02,54,12.80
2011,07,17,02,55,12.80
2011,07,17,02,56,12.80
2011,07,17,02,57,12.80
2011,07,17,02,58,12.80
2011,07,17,02,59,12.80
2011,07,17,03,00,12.80
2011,07,17,03,01,12.80
2011,07,17,03,02,12.80
2011,07,17,03,03,12.80
2011,07,17,03,04,12.80
2011,07,17,03,05,12.80
2011,07,17,03,06,12.80
2011,07,17,03,07,12.80
2011,07,17,03,08,12.80
2011,07,17,03,09,12.80
2011,07,17,03,10,12.80
2011,07,17,03,11,12.80
2011,07,17,03,12,12.80
2011,07,17,03,13,12.80
2011,07,17,03,14,12.80
2011,07,17,03,15,12.80
2011,07,17,03,16,12.80
2011,07,17,03,17,12.80
2011,07,17,03,18,12.90
2011,07,17,03,19,12.90
2011,07,17,03,20,12.90
2011,07,17,03,21,12.90
2011,07,17,03,22,12.90
2011,07,17,03,23,12.90
2011,07,17,03,24,12.90
2011,07,17,03,25,12.90
2011,07,17,03,26,13.00
2011,07,17,03,27,13.00
2011,07,17,03,28,13.00
2011,07,17,03,29,13.00
2011,07,17,03,30,13.00
2011,07,17,03,31,13.00
2011,07,17,03,32,13.00
2011,07,17,03,33,13.00
2011,07,17,03,34,13.00
2011,07,17,03,35,13.00
2011,07,17,03,36,13.00
2011,07,17,03,37,13.00
2011,07,17,03,38,13.00
2011,07,17,03,39,13.00
2011,07,17,03,40,13.00
2011,07,17,03,41,13.00
2011,07,17,03,42,13.00
2011,07,17,03,43,13.00
2011,07,17,03,44,13.00
2011,07,17,03,45,13.00
2011,07,17,03,46,13.00
2011,07,17,03,47,13.00
2011,07,17,03,48,13.00
2011,07,17,03,49,13.00
2011,07,17,03,50,13.10
2011,07,17,03,51,13.00
2011,07,17,03,52,13.00
2011,07,17,03,53,13.00
2011,07,17,03,54,13.00
2011,07,17,03,55,13.00
2011,07,17,03,56,13.00
2011,07,17,03,57,13.00
2011,07,17,03,58,13.00
2011,07,17,03,59,13.10
2011,07,17,04,00,13.10
2011,07,17,04,01,13.10
2011,07,17,04,02,13.10
2011,07,17,04,03,13.10
2011,07,17,04,04,13.10
2011,07,17,04,05,13.10
2011,07,17,04,06,13.20
2011,07,17,04,07,13.20
2011,07,17,04,08,13.20
2011,07,17,04,09,13.20
2011,07,17,04,10,13.20
2011,07,17,04,11,13.20
2011,07,17,04,12,13.20
2011,07,17,04,13,13.20
2011,07,17,04,14,13.20
2011,07,17,04,15,13.20
2011,07,17,04,16,13.20
2011,07,17,04,17,13.20
2011,07,17,04,18,13.20
2011,07,17,04,19,13.20
2011,07,17,04,20,13.20
2011,07,17,04,21,13.20
2011,07,17,04,22,13.20
2011,07,17,04,23,13.20
2011,07,17,04,24,13.20
2011,07,17,04,25,13.20
2011,07,17,04,26,13.20
2011,07,17,04,27,13.30
2011,07,17,04,28,13.30
2011,07,17,04,29,13.30
2011,07,17,04,30,13.30
2011,07,17,04,31,13.30
2011,07,17,04,32,13.30
2011,07,17,04,33,13.30
2011,07,17,04,34,13.30
2011,07,17,04,35,13.20
2011,07,17,04,36,13.20
2011,07,17,04,37,13.20
2011,07,17,04,38,13.20
2011,07,17,04,39,13.20
2011,07,17,04,40,13.20
2011,07,17,04,41,13.20
2011,07,17,04,42,13.20
2011,07,17,04,43,13.10
2011,07,17,04,44,13.10
2011,07,17,04,45,13.10
2011,07,17,04,46,13.10
2011,07,17,04,47,13.10
2011,07,17,04,48,13.10
2011,07,17,04,49,13.10
2011,07,17,04,50,13.10
2011,07,17,04,51,13.10
2011,07,17,04,52,13.10
2011,07,17,04,53,13.10
2011,07,17,04,54,13.10
2011,07,17,04,55,13.10
2011,07,17,04,56,13.10
2011,07,17,04,57,13.10
2011,07,17,04,58,13.10
2011,07,17,04,59,13.10
2011,07,17,05,00,13.10
2011,07,17,05,01,13.10
2011,07,17,05,02,13.10
2011,07,17,05,03,13.00
2011,07,17,05,04,13.00
2011,07,17,05,05,13.00
2011,07,17,05,06,13.00
2011,07,17,05,07,13.00
2011,07,17,05,08,13.00
2011,07,17,05,09,13.00
2011,07,17,05,10,13.00
2011,07,17,05,11,13.00
2011,07,17,05,12,13.00
2011,07,17,05,13,13.00
2011,07,17,05,14,13.00
2011,07,17,05,15,13.00
2011,07,17,05,16,13.00
2011,07,17,05,17,13.00
2011,07,17,05,18,13.00
2011,07,17,05,19,13.10
2011,07,17,05,20,13.10
2011,07,17,05,21,13.10
2011,07,17,05,22,13.00
2011,07,17,05,23,13.10
2011,07,17,05,24,13.10
2011,07,17,05,25,13.10
2011,07,17,05,26,13.10
2011,07,17,05,27,13.00
2011,07,17,05,28,13.00
2011,07,17,05,29,13.10
2011,07,17,05,30,13.00
2011,07,17,05,31,13.10
2011,07,17,05,32,13.10
2011,07,17,05,33,13.10
2011,07,17,05,34,13.10
2011,07,17,05,35,13.10
2011,07,17,05,36,13.10
2011,07,17,05,37,13.10
2011,07,17,05,38,13.10
2011,07,17,05,39,13.10
2011,07,17,05,40,13.10
2011,07,17,05,41,13.00
2011,07,17,05,42,13.00
2011,07,17,05,43,13.00
2011,07,17,05,44,13.00
2011,07,17,05,45,12.90
2011,07,17,05,46,12.90
2011,07,17,05,47,12.90
2011,07,17,05,48,12.90
2011,07,17,05,49,12.90
2011,07,17,05,50,12.90
2011,07,17,05,51,12.90
2011,07,17,05,52,12.90
2011,07,17,05,53,12.90
2011,07,17,05,54,12.90
2011,07,17,05,55,12.90
2011,07,17,05,56,13.00
2011,07,17,05,57,13.00
2011,07,17,05,58,13.00
2011,07,17,05,59,13.00
2011,07,17,06,00,13.00
2011,07,17,06,01,13.00
2011,07,17,06,02,13.00
2011,07,17,06,03,13.00
2011,07,17,06,04,13.00
2011,07,17,06,05,13.10
2011,07,17,06,06,13.10
2011,07,17,06,07,13.10
2011,07,17,06,08,13.00
2011,07,17,06,09,13.00
2011,07,17,06,10,13.00
2011,07,17,06,11,13.00
2011,07,17,06,12,13.00
2011,07,17,06,13,13.00
2011,07,17,06,14,13.10
2011,07,17,06,15,13.10
2011,07,17,06,16,13.10
2011,07,17,06,17,13.10
2011,07,17,06,18,13.10
2011,07,17,06,19,13.10
2011,07,17,06,20,13.10
2011,07,17,06,21,13.10
2011,07,17,06,22,13.10
2011,07,17,06,23,13.10
2011,07,17,06,24,13.10
2011,07,17,06,25,13.10
2011,07,17,06,26,13.10
2011,07,17,06,27,13.10
2011,07,17,06,28,13.10
2011,07,17,06,29,13.10
2011,07,17,06,30,13.10
2011,07,17,06,31,13.10
2011,07,17,06,32,13.10
2011,07,17,06,33,13.10
2011,07,17,06,34,13.20
2011,07,17,06,35,13.20
2011,07,17,06,36,13.20
2011,07,17,06,37,13.20
2011,07,17,06,38,13.20
2011,07,17,06,39,13.20
2011,07,17,06,40,13.30
2011,07,17,06,41,13.30
2011,07,17,06,42,13.30
2011,07,17,06,43,13.30
2011,07,17,06,44,13.30
2011,07,17,06,45,13.40
2011,07,17,06,46,13.40
2011,07,17,06,47,13.40
2011,07,17,06,48,13.40
2011,07,17,06,49,13.40
2011,07,17,06,50,13.40
2011,07,17,06,51,13.40
2011,07,17,06,52,13.40
2011,07,17,06,53,13.40
2011,07,17,06,54,13.40
2011,07,17,06,55,13.40
2011,07,17,06,56,13.40
2011,07,17,06,57,13.40
2011,07,17,06,58,13.40
2011,07,17,06,59,13.40
2011,07,17,07,00,13.40
2011,07,17,07,01,13.50
2011,07,17,07,02,13.50
2011,07,17,07,03,13.50
2011,07,17,07,04,13.40
2011,07,17,07,05,13.50
2011,07,17,07,06,13.50
2011,07,17,07,07,13.50
2011,07,17,07,08,13.50
2011,07,17,07,09,13.50
2011,07,17,07,10,13.50
2011,07,17,07,11,13.60
2011,07,17,07,12,13.60
2011,07,17,07,13,13.60
2011,07,17,07,14,13.60
2011,07,17,07,15,13.60
2011,07,17,07,16,13.60
2011,07,17,07,17,13.70
2011,07,17,07,18,13.70
2011,07,17,07,19,13.70
2011,07,17,07,20,13.70
2011,07,17,07,21,13.70
2011,07,17,07,22,13.70
2011,07,17,07,23,13.70
2011,07,17,07,24,13.80
2011,07,17,07,25,13.80
2011,07,17,07,26,13.80
2011,07,17,07,27,13.80
2011,07,17,07,28,13.90
2011,07,17,07,29,13.90
2011,07,17,07,30,13.90
2011,07,17,07,31,14.00
2011,07,17,07,32,14.00
2011,07,17,07,33,14.10
2011,07,17,07,34,14.10
2011,07,17,07,35,14.10
2011,07,17,07,36,14.10
2011,07,17,07,37,14.20
2011,07,17,07,38,14.20
2011,07,17,07,39,14.20
2011,07,17,07,40,14.30
2011,07,17,07,41,14.30
2011,07,17,07,42,14.30
2011,07,17,07,43,14.30
2011,07,17,07,44,14.30
2011,07,17,07,45,14.30
2011,07,17,07,46,14.30
2011,07,17,07,47,14.30
2011,07,17,07,48,14.30
2011,07,17,07,49,14.30
2011,07,17,07,50,14.40
2011,07,17,07,51,14.40
2011,07,17,07,52,14.40
2011,07,17,07,53,14.40
2011,07,17,07,54,14.50
2011,07,17,07,55,14.50
2011,07,17,07,56,14.60
2011,07,17,07,57,14.60
2011,07,17,07,58,14.60
2011,07,17,07,59,14.60
2011,07,17,08,00,14.70
2011,07,17,08,01,14.70
2011,07,17,08,02,14.70
2011,07,17,08,03,14.70
2011,07,17,08,04,14.70
2011,07,17,08,05,14.80
2011,07,17,08,06,14.80
2011,07,17,08,07,14.80
2011,07,17,08,08,14.80
2011,07,17,08,09,14.80
2011,07,17,08,10,14.80
2011,07,17,08,11,14.80
2011,07,17,08,12,14.90
2011,07,17,08,13,14.90
2011,07,17,08,14,14.90
2011,07,17,08,15,15.00
2011,07,17,08,16,14.90
2011,07,17,08,17,15.00
2011,07,17,08,18,15.00
2011,07,17,08,19,15.10
2011,07,17,08,20,15.10
2011,07,17,08,21,15.10
2011,07,17,08,22,15.10
2011,07,17,08,23,15.10
2011,07,17,08,24,15.10
2011,07,17,08,25,15.20
2011,07,17,08,26,15.20
2011,07,17,08,27,15.20
2011,07,17,08,28,15.20
2011,07,17,08,29,15.30
2011,07,17,08,30,15.30
2011,07,17,08,31,15.40
2011,07,17,08,32,15.40
2011,07,17,08,33,15.40
2011,07,17,08,34,15.40
2011,07,17,08,35,15.40
2011,07,17,08,36,15.50
2011,07,17,08,37,15.50
2011,07,17,08,38,15.60
2011,07,17,08,39,15.60
2011,07,17,08,40,15.70
2011,07,17,08,41,15.70
2011,07,17,08,42,15.70
2011,07,17,08,43,15.80
2011,07,17,08,44,15.80
2011,07,17,08,45,15.80
2011,07,17,08,46,15.80
2011,07,17,08,47,15.80
2011,07,17,08,48,15.90
2011,07,17,08,49,15.90
2011,07,17,08,50,15.90
2011,07,17,08,51,15.90
2011,07,17,08,52,15.90
2011,07,17,08,53,16.00
2011,07,17,08,54,16.00
2011,07,17,08,55,16.10
2011,07,17,08,56,16.10
2011,07,17,08,57,16.10
2011,07,17,08,58,16.10
2011,07,17,08,59,16.10
2011,07,17,09,00,16.10
2011,07,17,09,01,16.10
2011,07,17,09,02,16.20
2011,07,17,09,03,16.20
2011,07,17,09,04,16.20
2011,07,17,09,05,16.20
2011,07,17,09,06,16.20
2011,07,17,09,07,16.20
2011,07,17,09,08,16.20
2011,07,17,09,09,16.20
2011,07,17,09,10,16.20
2011,07,17,09,11,16.20
2011,07,17,09,12,16.20
2011,07,17,09,13,16.20
2011,07,17,09,14,16.20
2011,07,17,09,15,16.30
2011,07,17,09,16,16.30
2011,07,17,09,17,16.30
2011,07,17,09,18,16.30
2011,07,17,09,19,16.30
2011,07,17,09,20,16.30
2011,07,17,09,21,16.40
2011,07,17,09,22,16.40
2011,07,17,09,23,16.40
2011,07,17,09,24,16.50
2011,07,17,09,25,16.50
2011,07,17,09,26,16.60
2011,07,17,09,27,16.60
2011,07,17,09,28,16.60
2011,07,17,09,29,16.60
2011,07,17,09,30,16.60
2011,07,17,09,31,16.60
2011,07,17,09,32,16.60
2011,07,17,09,33,16.60
2011,07,17,09,34,16.60
2011,07,17,09,35,16.50
2011,07,17,09,36,16.50
2011,07,17,09,37,16.50
2011,07,17,09,38,16.40
2011,07,17,09,39,16.40
2011,07,17,09,40,16.40
2011,07,17,09,41,16.40
2011,07,17,09,42,16.40
2011,07,17,09,43,16.30
2011,07,17,09,44,16.30
2011,07,17,09,45,16.30
2011,07,17,09,46,16.30
2011,07,17,09,47,16.30
2011,07,17,09,48,16.30
2011,07,17,09,49,16.20
2011,07,17,09,50,16.10
2011,07,17,09,51,16.10
2011,07,17,09,52,16.00
2011,07,17,09,53,16.00
2011,07,17,09,54,15.90
2011,07,17,09,55,15.80
2011,07,17,09,56,15.80
2011,07,17,09,57,15.70
2011,07,17,09,58,15.70
2011,07,17,09,59,15.60
2011,07,17,10,00,15.60
2011,07,17,10,01,15.50
2011,07,17,10,02,15.50
2011,07,17,10,03,15.40
2011,07,17,10,04,15.40
2011,07,17,10,05,15.30
2011,07,17,10,06,15.30
2011,07,17,10,07,15.30
2011,07,17,10,08,15.30
2011,07,17,10,09,15.30
2011,07,17,10,10,15.30
2011,07,17,10,11,15.30
2011,07,17,10,12,15.30
2011,07,17,10,13,15.30
2011,07,17,10,14,15.30
2011,07,17,10,15,15.30
2011,07,17,10,16,15.30
2011,07,17,10,17,15.30
2011,07,17,10,18,15.30
2011,07,17,10,19,15.30
2011,07,17,10,20,15.20
2011,07,17,10,21,15.20
2011,07,17,10,22,15.20
2011,07,17,10,23,15.20
2011,07,17,10,24,15.20
2011,07,17,10,25,15.20
2011,07,17,10,26,15.20
2011,07,17,10,27,15.10
2011,07,17,10,28,15.10
2011,07,17,10,29,15.00
2011,07,17,10,30,15.00
2011,07,17,10,31,14.90
2011,07,17,10,32,14.90
2011,07,17,10,33,14.90
2011,07,17,10,34,14.90
2011,07,17,10,35,14.90
2011,07,17,10,36,15.00
2011,07,17,10,37,15.00
2011,07,17,10,38,15.10
2011,07,17,10,39,15.10
2011,07,17,10,40,15.20
2011,07,17,10,41,15.20
2011,07,17,10,42,15.20
2011,07,17,10,43,15.30
2011,07,17,10,44,15.30
2011,07,17,10,45,15.30
2011,07,17,10,46,15.30
2011,07,17,10,47,15.40
2011,07,17,10,48,15.40
2011,07,17,10,49,15.40
2011,07,17,10,50,15.40
2011,07,17,10,51,15.40
2011,07,17,10,52,15.40
2011,07,17,10,53,15.40
2011,07,17,10,54,15.30
2011,07,17,10,55,15.30
2011,07,17,10,56,15.20
2011,07,17,10,57,15.20
2011,07,17,10,58,15.20
2011,07,17,10,59,15.30
2011,07,17,11,00,15.30
2011,07,17,11,01,15.30
2011,07,17,11,02,15.30
2011,07,17,11,03,15.30
2011,07,17,11,04,15.30
2011,07,17,11,05,15.40
2011,07,17,11,06,15.40
2011,07,17,11,07,15.40
2011,07,17,11,08,15.50
2011,07,17,11,09,15.50
2011,07,17,11,10,15.60
2011,07,17,11,11,15.60
2011,07,17,11,12,15.60
2011,07,17,11,13,15.70
2011,07,17,11,14,15.70
2011,07,17,11,15,15.70
2011,07,17,11,16,15.70
2011,07,17,11,17,15.70
2011,07,17,11,18,15.70
2011,07,17,11,19,15.80
2011,07,17,11,20,15.80
2011,07,17,11,21,15.90
2011,07,17,11,22,16.00
2011,07,17,11,23,16.00
2011,07,17,11,24,16.10
2011,07,17,11,25,16.20
2011,07,17,11,26,16.20
2011,07,17,11,27,16.20
2011,07,17,11,28,16.20
2011,07,17,11,29,16.20
2011,07,17,11,30,16.10
2011,07,17,11,31,16.10
2011,07,17,11,32,16.10
2011,07,17,11,33,16.10
2011,07,17,11,34,16.10
2011,07,17,11,35,16.10
2011,07,17,11,36,16.00
2011,07,17,11,37,16.00
2011,07,17,11,38,16.00
2011,07,17,11,39,15.90
2011,07,17,11,40,15.80
2011,07,17,11,41,15.70
2011,07,17,11,42,15.60
2011,07,17,11,43,15.60
2011,07,17,11,44,15.50
2011,07,17,11,45,15.40
2011,07,17,11,46,15.30
2011,07,17,11,47,15.30
2011,07,17,11,48,15.30
2011,07,17,11,49,15.30
2011,07,17,11,50,15.20
2011,07,17,11,51,15.20
2011,07,17,11,52,15.20
2011,07,17,11,53,15.20
2011,07,17,11,54,15.30
2011,07,17,11,55,15.30
2011,07,17,11,56,15.30
2011,07,17,11,57,15.30
2011,07,17,11,58,15.30
2011,07,17,11,59,15.30
2011,07,17,12,00,15.30
2011,07,17,12,01,15.30
2011,07,17,12,02,15.30
2011,07,17,12,03,15.30
2011,07,17,12,04,15.30
2011,07,17,12,05,15.30
2011,07,17,12,06,15.30
2011,07,17,12,07,15.40
2011,07,17,12,08,15.40
2011,07,17,12,09,15.50
2011,07,17,12,10,15.60
2011,07,17,12,11,15.60
2011,07,17,12,12,15.70
2011,07,17,12,13,15.70
2011,07,17,12,14,15.70
2011,07,17,12,15,15.70
2011,07,17,12,16,15.80
2011,07,17,12,17,15.80
2011,07,17,12,18,15.80
2011,07,17,12,19,15.70
2011,07,17,12,20,15.70
2011,07,17,12,21,15.70
2011,07,17,12,22,15.70
2011,07,17,12,23,15.70
2011,07,17,12,24,15.70
2011,07,17,12,25,15.70
2011,07,17,12,26,15.70
2011,07,17,12,27,15.70
2011,07,17,12,28,15.70
2011,07,17,12,29,15.70
2011,07,17,13,20,17.80
2011,07,17,13,21,17.80
2011,07,17,13,22,17.80
2011,07,17,13,23,17.80
2011,07,17,13,24,17.80
2011,07,17,13,25,17.80
2011,07,17,13,26,17.90
2011,07,17,13,27,18.00
2011,07,17,13,28,18.10
2011,07,17,13,29,18.10
2011,07,17,13,30,18.20
2011,07,17,13,31,18.20
2011,07,17,13,32,18.20
2011,07,17,13,33,18.30
2011,07,17,13,34,18.30
2011,07,17,13,35,18.30
2011,07,17,13,36,18.40
2011,07,17,13,37,18.40
2011,07,17,13,38,18.40
2011,07,17,13,39,18.40
2011,07,17,13,40,18.40
2011,07,17,13,41,18.40
2011,07,17,13,42,18.40
2011,07,17,13,43,18.40
2011,07,17,13,44,18.50
2011,07,17,13,45,18.50
2011,07,17,13,46,18.50
2011,07,17,13,47,18.60
2011,07,17,13,48,18.60
2011,07,17,13,49,18.70
2011,07,17,13,50,18.70
2011,07,17,13,51,18.80
2011,07,17,13,52,18.80
2011,07,17,13,53,18.80
2011,07,17,13,54,18.80
2011,07,17,13,55,18.80
2011,07,17,13,56,18.80
2011,07,17,13,57,18.80
2011,07,17,13,58,18.80
2011,07,17,13,59,18.80
2011,07,17,14,00,18.80
2011,07,17,14,01,18.80
2011,07,17,14,02,18.80
2011,07,17,14,03,18.80
2011,07,17,14,04,18.80
2011,07,17,14,05,18.90
2011,07,17,14,06,18.90
2011,07,17,14,07,18.90
2011,07,17,14,08,18.90
2011,07,17,14,09,18.90
2011,07,17,14,10,18.90
2011,07,17,14,11,18.90
2011,07,17,14,12,18.90
2011,07,17,14,13,18.90
2011,07,17,14,14,18.90
2011,07,17,14,15,18.90
2011,07,17,14,16,18.80
2011,07,17,14,17,18.80
2011,07,17,14,18,18.80
2011,07,17,14,19,18.70
2011,07,17,14,20,18.70
2011,07,17,14,21,18.70
2011,07,17,14,22,18.60
2011,07,17,14,23,18.60
2011,07,17,14,24,18.50
2011,07,17,14,25,18.50
2011,07,17,14,26,18.40
2011,07,17,14,27,18.40
2011,07,17,14,28,18.40
2011,07,17,14,29,18.50
2011,07,17,14,30,18.50
2011,07,17,14,31,18.50
2011,07,17,14,32,18.50
2011,07,17,14,33,18.60
2011,07,17,14,34,18.60
2011,07,17,14,35,18.70
2011,07,17,14,36,18.70
2011,07,17,14,37,18.60
2011,07,17,14,38,18.50
2011,07,17,14,39,18.30
2011,07,17,14,40,18.00
2011,07,17,14,41,17.70
2011,07,17,14,42,17.40
2011,07,17,14,43,17.20
2011,07,17,14,44,17.00
2011,07,17,14,45,16.80
2011,07,17,14,46,16.60
2011,07,17,14,47,16.40
2011,07,17,14,48,16.30
2011,07,17,14,49,16.10
2011,07,17,14,50,16.00
2011,07,17,14,51,15.90
2011,07,17,14,52,15.80
2011,07,17,14,53,15.70
2011,07,17,14,54,15.60
2011,07,17,14,55,15.60
2011,07,17,14,56,15.50
2011,07,17,14,57,15.50
2011,07,17,14,58,15.40
2011,07,17,14,59,15.30
2011,07,17,15,00,15.30
2011,07,17,15,01,15.20
2011,07,17,15,02,15.20
2011,07,17,15,03,15.20
2011,07,17,15,04,15.20
2011,07,17,15,05,15.20
2011,07,17,15,06,15.20
2011,07,17,15,07,15.20
2011,07,17,15,08,15.20
2011,07,17,15,09,15.20
2011,07,17,15,10,15.20
2011,07,17,15,11,15.30
2011,07,17,15,12,15.30
2011,07,17,15,13,15.30
2011,07,17,15,14,15.30
2011,07,17,15,15,15.30
2011,07,17,15,16,15.30
2011,07,17,15,17,15.30
2011,07,17,15,18,15.40
2011,07,17,15,19,15.40
2011,07,17,15,20,15.40
2011,07,17,15,21,15.50
2011,07,17,15,22,15.50
2011,07,17,15,23,15.50
2011,07,17,15,24,15.60
2011,07,17,15,25,15.60
2011,07,17,15,26,15.60
2011,07,17,15,27,15.60
2011,07,17,15,28,15.70
2011,07,17,15,29,15.70
2011,07,17,15,30,15.70
2011,07,17,15,31,15.70
2011,07,17,15,32,15.70
2011,07,17,15,33,15.70
2011,07,17,15,34,15.70
2011,07,17,15,35,15.70
2011,07,17,15,36,15.80
2011,07,17,15,37,15.80
2011,07,17,15,38,15.80
2011,07,17,15,39,15.80
2011,07,17,15,40,15.80
2011,07,17,15,41,15.80
2011,07,17,15,42,15.90
2011,07,17,15,43,15.90
2011,07,17,15,44,15.90
2011,07,17,15,45,15.90
2011,07,17,15,46,15.90
2011,07,17,15,47,15.90
2011,07,17,15,48,15.90
2011,07,17,15,49,16.00
2011,07,17,15,50,16.00
2011,07,17,15,51,16.00
2011,07,17,15,52,16.00
2011,07,17,15,53,16.10
2011,07,17,15,54,16.10
2011,07,17,15,55,16.10
2011,07,17,15,56,16.10
2011,07,17,15,57,16.20
2011,07,17,15,58,16.20
2011,07,17,15,59,16.20
2011,07,17,16,00,16.20
2011,07,17,16,01,16.20
2011,07,17,16,02,16.30
2011,07,17,16,03,16.30
2011,07,17,16,04,16.30
2011,07,17,16,05,16.30
2011,07,17,16,06,16.30
2011,07,17,16,07,16.30
2011,07,17,16,08,16.40
2011,07,17,16,09,16.40
2011,07,17,16,10,16.40
2011,07,17,16,11,16.40
2011,07,17,16,12,16.40
2011,07,17,16,13,16.50
2011,07,17,16,14,16.50
2011,07,17,16,15,16.40
2011,07,17,16,16,16.40
2011,07,17,16,17,16.40
2011,07,17,16,18,16.40
2011,07,17,16,19,16.40
2011,07,17,16,20,16.40
2011,07,17,16,21,16.40
2011,07,17,16,22,16.40
2011,07,17,16,23,16.40
2011,07,17,16,24,16.40
2011,07,17,16,25,16.40
2011,07,17,16,26,16.40
2011,07,17,16,27,16.40
2011,07,17,16,28,16.40
2011,07,17,16,29,16.40
2011,07,17,16,30,16.40
2011,07,17,16,31,16.40
2011,07,17,16,32,16.40
2011,07,17,16,33,16.40
2011,07,17,16,34,16.40
2011,07,17,16,35,16.40
2011,07,17,16,36,16.50
2011,07,17,16,37,16.40
2011,07,17,16,38,16.40
2011,07,17,16,39,16.40
2011,07,17,16,40,16.40
2011,07,17,16,41,16.30
2011,07,17,16,42,16.30
2011,07,17,16,43,16.30
2011,07,17,16,44,16.30
2011,07,17,16,45,16.30
2011,07,17,16,46,16.30
2011,07,17,16,47,16.30
2011,07,17,16,48,16.20
2011,07,17,16,49,16.20
2011,07,17,16,50,16.20
2011,07,17,16,51,16.20
2011,07,17,16,52,16.20
2011,07,17,16,53,16.20
2011,07,17,16,54,16.10
2011,07,17,16,55,16.10
2011,07,17,16,56,16.00
2011,07,17,16,57,15.90
2011,07,17,16,58,15.90
2011,07,17,16,59,15.90
2011,07,17,17,00,15.90
2011,07,17,17,01,15.90
2011,07,17,17,02,15.90
2011,07,17,17,03,15.80
2011,07,17,17,04,15.80
2011,07,17,17,05,15.80
2011,07,17,17,06,15.80
2011,07,17,17,07,15.80
2011,07,17,17,08,15.80
2011,07,17,17,09,15.80
2011,07,17,17,10,15.80
2011,07,17,17,11,15.80
2011,07,17,17,12,15.90
2011,07,17,17,13,15.90
2011,07,17,17,14,15.90
2011,07,17,17,15,16.00
2011,07,17,17,16,16.00
2011,07,17,17,17,16.10
2011,07,17,17,18,16.10
2011,07,17,17,19,16.20
2011,07,17,17,20,16.20
2011,07,17,17,21,16.20
2011,07,17,17,22,16.20
2011,07,17,17,23,16.20
2011,07,17,17,24,16.10
2011,07,17,17,25,16.10
2011,07,17,17,26,16.00
2011,07,17,17,27,16.00
2011,07,17,17,28,15.90
2011,07,17,17,29,15.80
2011,07,17,17,30,15.70
2011,07,17,17,31,15.60
2011,07,17,17,32,15.60
2011,07,17,17,33,15.50
2011,07,17,17,34,15.40
2011,07,17,17,35,15.30
2011,07,17,17,36,15.20
2011,07,17,17,37,15.10
2011,07,17,17,38,15.10
2011,07,17,17,39,15.00
2011,07,17,17,40,14.90
2011,07,17,17,41,14.90
2011,07,17,17,42,14.90
2011,07,17,17,43,14.80
2011,07,17,17,44,14.80
2011,07,17,17,45,14.80
2011,07,17,17,46,14.70
2011,07,17,17,47,14.70
2011,07,17,17,48,14.70
2011,07,17,17,49,14.60
2011,07,17,17,50,14.60
2011,07,17,17,51,14.60
2011,07,17,17,52,14.60
2011,07,17,17,53,14.50
2011,07,17,17,54,14.50
2011,07,17,17,55,14.50
2011,07,17,17,56,14.60
2011,07,17,17,57,14.60
2011,07,17,17,58,14.60
2011,07,17,17,59,14.70
2011,07,17,18,00,14.70
2011,07,17,18,01,14.70
2011,07,17,18,02,14.70
2011,07,17,18,03,14.70
2011,07,17,18,04,14.70
2011,07,17,18,05,14.70
2011,07,17,18,06,14.70
2011,07,17,18,07,14.80
2011,07,17,18,08,14.80
2011,07,17,18,09,14.80